Location: Boissi�res
(45.2500°N, 2.3667°E)
Time: 00:00:39
(UTC+00:00)

ISS - Pass Details

Date: 19 September 2021
Orbit: 417 x 423 km, 51.6° (Epoch: 18 October)

Event Time Altitude Azimuth Distance (km) Brightness Sun altitude
Rises 19:33:49 0° 253° (WSW) 2,356 0.9 -18.0°
Reaches altitude 10° 19:35:56 10° 258° (WSW) 1,496 -0.1 -18.4°
Maximum altitude 19:39:13 53° 336° (NNW) 521 -3.1 -18.9°
Enters shadow 19:40:19 35° 34° (NE) 696 -2.8 -19.1°
